DW6102 Weather Reports


Display with metric or nautical units.
time (UTC)temp
F
wind
direction
speed
MPH
gust
MPH
rain 1hr
in
rain 24hr
in
rain mn
in
humidity
%
barometer
mb
20200402093121 56 180 0.0 0.0 0.00 0.00 0.00 49 1004.9
20200402090055 57 181 0.0 0.0 0.00 0.00 0.00 46 1004.7
20200402084612 57 180 0.0 0.0 0.00 0.00 0.00 46 1004.8
20200402083205 58 201 0.0 0.0 0.00 0.00 0.00 47 1004.7
20200402081628 58 201 0.0 0.0 0.00 0.00 0.00 48 1004.8
20200402080137 57 201 0.0 0.0 0.00 0.00 0.00 50 1004.7
20200402074606 58 200 0.0 0.0 0.00 0.00 0.00 52 1004.6
20200402073131 59 200 0.0 0.0 0.00 0.00 0.00 50 1004.6
20200402071645 60 200 0.0 0.0 0.00 0.00 0.00 48 1004.6
20200402070256 61 200 0.0 0.0 0.00 0.00 0.00 46 1004.5
20200402063105 61 200 0.0 0.0 0.00 0.00 0.00 46 1004.3
20200402061604 60 260 0.0 0.0 0.00 0.00 0.00 52 1004.1
20200402060154 60 260 0.0 0.0 0.00 0.00 0.00 53 1004.0
20200402054654 61 260 0.0 0.0 0.00 0.00 0.00 51 1003.9
20200402053116 61 260 0.0 0.0 0.00 0.00 0.00 50 1003.9
20200402051615 62 260 0.0 0.0 0.00 0.00 0.00 48 1003.8
20200402050150 63 260 0.0 0.0 0.00 0.00 0.00 46 1003.8
20200402044545 63 260 0.0 0.0 0.00 0.00 0.00 44 1003.6
20200402043122 64 260 0.0 0.0 0.00 0.00 0.00 44 1003.6
20200402041617 65 260 0.0 0.0 0.00 0.00 0.00 42 1003.5
20200402040048 65 260 0.0 0.0 0.00 0.00 0.00 40 1003.5
20200402034631 66 260 0.0 0.0 0.00 0.00 0.00 37 1003.4
20200402033100 67 259 0.0 0.0 0.00 0.00 0.00 36 1003.3
20200402031550 69 260 0.0 0.0 0.00 0.00 0.00 34 1002.9
20200402030123 70 260 0.0 0.0 0.00 0.00 0.00 30 1002.9
20200402024555 72 260 0.0 0.0 0.00 0.00 0.00 27 1002.7
20200402023122 75 260 0.0 0.0 0.00 0.00 0.00 25 1002.6
20200402021655 77 260 0.0 0.0 0.00 0.00 0.00 22 1002.5
20200402020124 79 256 0.0 0.0 0.00 0.00 0.00 21 1002.3
20200402014559 80 288 0.0 0.0 0.00 0.00 0.00 20 1002.3
20200402013133 82 280 0.0 0.0 0.00 0.00 0.00 19 1002.3
20200402011601 83 225 0.0 2.0 0.00 0.00 0.00 19 1002.3
20200402010041 86 235 0.0 0.0 0.00 0.00 0.00 18 1002.3
20200402004608 86 215 0.0 5.0 0.00 0.00 0.00 17 1002.4
20200402003058 86 222 0.0 4.0 0.00 0.00 0.00 18 1002.4
20200402001601 87 263 0.0 3.0 0.00 0.00 0.00 18 1002.2
20200402000249 86 252 0.0 4.0 0.00 0.00 0.00 19 1002.2
20200401234543 87 255 0.0 4.0 0.00 0.00 0.00 18 1002.3
20200401233048 88 252 0.0 2.0 0.00 0.00 0.00 17 1002.2
20200401231637 87 271 0.0 2.0 0.00 0.00 0.00 18 1002.2
20200401230048 87 257 0.0 5.0 0.00 0.00 0.00 18 1002.4
20200401224609 88 239 0.0 3.0 0.00 0.00 0.00 19 1002.5
20200401223107 87 238 0.0 2.0 0.00 0.00 0.00 18 1002.7
20200401221633 86 274 0.0 4.0 0.00 0.00 0.00 19 1002.7
20200401220110 86 200 0.0 4.0 0.00 0.00 0.00 21 1002.8
20200401214535 86 219 0.0 2.0 0.00 0.00 0.00 20 1002.9
20200401213048 87 294 0.0 6.0 0.00 0.00 0.00 20 1003.1
20200401211604 87 333 0.0 2.0 0.00 0.00 0.00 20 1003.3
20200401210035 84 260 0.0 1.0 0.00 0.00 0.00 20 1003.5
20200401204535 84 281 0.0 3.0 0.00 0.00 0.00 18 1003.8
20200401203106 85 283 0.0 1.0 0.00 0.00 0.00 19 1004.0
20200401201525 85 249 0.0 1.0 0.00 0.00 0.00 19 1004.0
20200401200035 85 283 0.0 1.0 0.00 0.00 0.00 19 1004.3
20200401194539 83 228 0.0 1.0 0.00 0.00 0.00 19 1004.6
20200401193042 83 260 0.0 3.0 0.00 0.00 0.00 20 1004.7
20200401191529 84 249 0.0 3.0 0.00 0.00 0.00 20 1005.0
20200401190025 84 242 0.0 0.0 0.00 0.00 0.00 22 1005.3
20200401184512 84 108 0.0 0.0 0.00 0.00 0.00 23 1005.6
20200401183013 84 238 0.0 0.0 0.00 0.00 0.00 26 1005.8
20200401181504 82 179 0.0 0.0 0.00 0.00 0.00 27 1006.1
20200401180208 80 91 0.0 0.0 0.00 0.00 0.00 28 1006.3
20200401174648 79 85 0.0 0.0 0.00 0.00 0.00 30 1006.5
20200401171737 75 129 0.0 0.0 0.00 0.00 0.00 36 1006.7
20200401170134 72 235 0.0 0.0 0.00 0.00 0.00 39 1006.8
20200401164646 71 72 0.0 0.0 0.00 0.00 0.00 41 1006.6
20200401161618 70 135 0.0 0.0 0.00 0.00 0.00 44 1006.5
20200401160136 68 136 0.0 0.0 0.00 0.00 0.00 46 1006.6
20200401154648 67 135 0.0 0.0 0.00 0.00 0.00 50 1006.5
20200401151613 61 186 0.0 0.0 0.00 0.00 0.00 67 1006.5
20200401150119 59 186 0.0 0.0 0.00 0.00 0.00 70 1006.4
20200401144602 58 186 0.0 0.0 0.00 0.00 0.00 72 1006.3
20200401141554 56 186 0.0 0.0 0.00 0.00 0.00 76 1006.2
20200401140041 55 186 0.0 0.0 0.00 0.00 0.00 77 1005.9
20200401134619 54 186 0.0 0.0 0.00 0.00 0.00 76 1005.8
20200401131602 54 186 0.0 0.0 0.00 0.00 0.00 75 1005.7
20200401130029 54 186 0.0 0.0 0.00 0.00 0.00 74 1005.7
20200401124606 55 186 0.0 0.0 0.00 0.00 0.00 72 1005.6
20200401121543 56 186 0.0 0.0 0.00 0.00 0.00 69 1005.4
20200401120024 57 186 0.0 0.0 0.00 0.00 0.00 69 1005.5
20200401114539 57 186 0.0 0.0 0.00 0.00 0.00 67 1005.5
20200401111601 57 186 0.0 0.0 0.00 0.00 0.00 66 1005.6
20200401110023 58 186 0.0 0.0 0.00 0.00 0.00 65 1005.8
20200401104517 58 186 0.0 0.0 0.00 0.00 0.00 65 1005.8
20200401101542 58 186 0.0 0.0 0.00 0.00 0.00 63 1006.1
20200401100022 58 186 0.0 0.0 0.00 0.00 0.00 61 1006.3